Location: La Estación
(39.9833°N, 3.9500°W)
Time: 16:18:24
(UTC+00:00)

MetOp-A - Pass Details

Date: 14 June 2025
Orbit: 521 x 774 km, 98.3° (Epoch: 20 July)

Event Time Altitude Azimuth Distance (km) Brightness Sun altitude
Exits shadow 23:48:38 47° 270° (W) 940 4.4 -26.4°
Drops below altitude 10° 23:52:52 10° 334° (NNW) 2,116 7.2 -26.5°
Sets 23:55:06 0° 341° (NNW) 2,993 8.3 -26.5°
